Powrót do katalogu

COSMOS 1275 DEB

AktywnyPO
NORAD 12964·DEBRIS·🇷🇺 Russia

Wystrzelony Jun 4, 1981 z Plesetsk Cosmodrome

Loading…

Następne Przeloty (najbliższe 24 godziny)

TLE

ŚwieżeSource: Space-Track

Epoka: Sep 14, 2026, 09:01 UTC

1 12964U 81053EK  26257.37602631  .00000022  00000-0  66533-5 0  9991
2 12964  82.9442  49.3594 0037546 243.2578 142.9344 13.80318407261127

Śledź COSMOS 1275 DEB w czasie rzeczywistym z AllMySat

Download on the App Store